{"data":{"norad_id":64194,"intl_designator":"2025-113AA","name":"STARLINK-34237","alt_names":[],"object_type":"PAYLOAD","status":"ACTIVE","operator":null,"country":"US","launch_date":"2025-05-28","launch_site_code":"AFETR","launch_vehicle":null,"mission":null,"orbit_class":"UNKNOWN","rcs_meters":null,"size_class":null,"mass_kg":null,"dimensions":null,"purposes":["comms"],"wikipedia_slug":null,"has_3d_model":false,"image_url":null,"decayed_at":null,"tle_current":{"epoch":"2026-05-25T03:05:33.381312Z","epoch_age_seconds":74648,"freshness":"FRESH","line1":"1 64194U 25113AA  26145.12885858  .00026696  00000+0  86877-3 0  9996","line2":"2 64194  53.1612  95.6973 0001146  79.7149 280.3981 15.31706540 56736","mean_motion":15.3170654,"eccentricity":0.0001146,"inclination_deg":53.1612,"raan_deg":95.6973,"arg_perigee_deg":79.7149,"mean_anomaly_deg":280.3981,"bstar":0.00086877,"rev_number":5673,"period_min":94.012786548525,"perigee_km":469.93562082584,"apogee_km":471.50537896482,"semimajor_km":6848.8574998953,"source":"CELESTRAK","updated_at":"2026-05-25T13:38:20.315181Z"}}}